User: anonymous   Login
Location: Unspecified
(0.0000°N, 0.0000°E)
Time: 21:16:06
(UTC+00:00)
Language:

KEPLER-O (KIPP) - Orbit

View from above orbital plane
View from above orbital plane
View from above satellite
View from above satellite

Ground track
Ground track

The orbit data is extracted from the following two-line orbital elements,

1 43157U 18008C   19047.45294343  .00000326  00000-0  23849-4 0  9993
2 43157  97.5068 122.3678 0016473  23.1135  99.0976 15.10149410 59338
Epoch (UTC): 16 February 2019 10:52:14
Eccentricity: 0.0016473
inclination: 97.5068°
perigee height: 524 km
apogee height: 547 km
right ascension of ascending node: 122.3678°
argument of perigee: 23.1135°
revolutions per day: 15.10149410
mean anomaly at epoch: 99.0976°
orbit number at epoch: 5933

The dashed part of the orbit path shows where the satellite is in the earth's shadow,  

DLR